Regional Weather Roundup
Issued by NWS Burlington, VT

Home | Current Version | Previous Version | Text Only | Print | Product List | Glossary On
Versions: 1 2 3 4 5 6 7 8 9 10 11 12 13 14 15 16 17 18 19 20 21 22 23 24 25 26 27 28 29 30 31 32 33 34 35 36 37 38 39 40 41 42 43 44 45 46 47 48 49 50
000
ASUS41 KBTV 231730
RWRBTV
VERMONT REGIONAL WEATHER ROUNDUP
NATIONAL WEATHER SERVICE BURLINGTON VT
100 PM EDT THU MAR 23 2017

NOTE: "FAIR" INDICATES FEW OR NO CLOUDS BELOW 12,000 FEET WITH NO
SIGNIFICANT WEATHER AND/OR OBSTRUCTIONS TO VISIBILITY.

* THESE REPORTS ARE NOT UNDER NWS QUALITY CONTROL AND/OR DO NOT
  REPORT WEATHER SUCH AS PRECIPITATION AND FOG.

VTZ001>019-231800-
_____VERMONT_____


CITY           SKY/WX    TMP DP  RH WIND       PRES   REMARKS
BURLINGTON     FAIR      29   4  34 NW14G22   30.49F WCI  18
MONTPELIER     FAIR      22   1  40 W15G29    30.44F WCI   9
MORRISVILLE    FAIR      25  -1  32 N13G23    30.45F WCI  14
ST. JOHNSBURY*   N/A     25  -2  31 MISG      30.41F
LYNDONVILLE*   FAIR      22  -3  33 W22G28    30.40S WCI   6
MIDDLEBURY*    FAIR      28   1  31 N13       30.47S WCI  17
RUTLAND*       FAIR      27   1  32 W12G18    30.46F WCI  17
SPRINGFIELD    FAIR      31  -5  21 W12G20    30.44F WCI  22
HIGHGATE*      FAIR      27   3  35 N5        30.50F WCI  22
NEWPORT*       FAIR      22   0  37 NW12G21   30.42F WCI  11
BENNINGTON     FAIR      27   0  31 W12G18    30.48F WCI  17
SUTTON*          N/A     21 N/A N/A MISG        N/A
ISLAND POND*     N/A     21 N/A N/A NW9         N/A  WCI  11
GALLUP MILLS*    N/A     23 N/A N/A MISG        N/A
UNION VILLAGE*   N/A     30 N/A N/A MISG        N/A
MT. MANSFIELD*   N/A      9 N/A N/A W33G45      N/A  WCI -15

_____LAKE CHAMPLAIN_____


CITY           SKY/WX    TMP DP  RH WIND       PRES   REMARKS
BURTON ISLAND*   N/A     28   9  43 N7          N/A  WCI  21
COLCHESTER RF*   N/A     30   3  31 N18         N/A  WCI  18
DIAMOND ISL*     N/A     30   5  34 N13         N/A  WCI  20

$$

NYZ007-026>031-035-052-083-087-231800-
_____NORTHERN NEW YORK_____


CITY           SKY/WX    TMP DP  RH WIND       PRES   REMARKS
PLATTSBURGH    FAIR      29   3  33 N16G23    30.49F WCI  17
SARANAC LAKE   FAIR      25  -3  29 W8G17     30.40F WCI  16
POTSDAM*       SUNNY     28   9  43 W3        30.53
STARK FALLS*     N/A     27 N/A N/A W9          N/A  WCI  17
WATERTOWN      FAIR      30  19  63 W14       30.57F WCI  19
FT DRUM        SUNNY     29   9  41 W10       30.52F WCI  20
ALBANY         FAIR      31   1  28 W6        30.54F WCI  25
GLENS FALLS    FAIR      31   3  30 S7        30.49F WCI  24

$$
NHZ002-005-011-231800-
_____NEW HAMPSHIRE_____


CITY           SKY/WX    TMP DP  RH WIND       PRES   REMARKS
LEBANON        MIX PCPN  30   1  29 NW10G26   30.43F WCI  21
KEENE          FAIR      30   1  29 N17G25    30.45F WCI  18
MT WASHINGTON  MOSUNNY   -4  -9  77 NW60G76     N/A  WCI -39
PLYMOUTH       FAIR      29  -1  26 NW14G21   30.40S WCI  18
WHITEFIELD     FAIR      23  -3  32 NW12G21   30.37F WCI  12

$$

_____REGIONAL QUEBEC LOCATIONS_____


CITY           SKY/WX    TMP DP  RH WIND       PRES   REMARKS
MONTREAL       MOSUNNY   27   1  33 W14G23    30.50F WCI  15
QUEBEC CITY    MOSUNNY   21  -2  35 W20       30.40F WCI   6
SHERBROOKE     MOSUNNY   19   0  42 NW15G23   30.41F WCI   5

_____REGIONAL ONTARIO LOCATIONS_____


CITY           SKY/WX    TMP DP  RH WIND       PRES   REMARKS
OTTAWA         SUNNY     30   7  37 W10       30.52F WCI  21

______KEY______
VSB  - VISIBILITY IN MILES
WCI  - WIND CHILL INDEX
HX   - HEAT INDEX
$$
NNNN




USA.gov is the U.S. government's official web portal to all federal, state and local government web resources and services.